Tracking 31027 objects as of 19-Jul-2025
HD Live streaming from Space Station
objects crossing your sky now

ARIANE 5 R/B

Track ARIANE 5 R/B now!


NORAD ID: 42816
Int'l Code: 2017-040C
Perigee: 270.0 km
Apogee: 33,253.0 km
Inclination: 2.7 °
Period: 583.6 minutes
Semi major axis: 23132 km
RCS: Unknown
Launch date: June 28, 2017
Source: France (FR)
Launch site: FRENCH GUIANA (FRGUI)

Note: This is a ROCKET BODY
Your satellite tracking list
CZ-4C DEB
Track 1 satellite(s)




NASA's NSSDC Master Catalog

Two Line Element Set (TLE):
1 42816U 17040C   25199.38392817  .00001803  00000-0  60288-3 0  9999
2 42816   2.6557 248.2673 7129128 166.0978 236.1301  2.46756540 68994
Source of the keplerian elements: AFSPC